New Haven, CT

4:35 AM EDT on August 25, 2016 (GMT -0400)
Tweed-New Haven

Weather History for KHVN - October, 2011

Change the Weather History Date:

Thursday, October 20, 2011

  Actual Average Record
Temperature  
Mean Temperature 64 °F -  
Max Temperature 69 °F 58 °F 76 °F (1984)
Min Temperature 59 °F 42 °F 30 °F (1972)
Degree Days  
Heating Degree Days 2    
Growing Degree Days 14 (Base 50)    
Moisture  
Dew Point 55 °F    
Average Humidity 77    
Maximum Humidity 96    
Minimum Humidity 50    
Precipitation  
Precipitation 0.13 in - - ()
Sea Level Pressure  
Sea Level Pressure 29.50 in    
Wind  
Wind Speed 10 mph (SW)    
Max Wind Speed 18 mph    
Max Gust Speed 31 mph    
Visibility 8 miles    
Events Rain    
Averages and records for this station are not official NWS values.
T = Trace of Precipitation, MM = Missing Value Source: NWS Daily Summary

Daily Weather History Graph

Daily Weather History Graph

Search for Another Location

Airport or City:

Trip Planner

Search our weather history database for the weather conditions in past years. The results will help you decide how hot, cold, wet, or windy it might be!

Date:

Astronomy

Oct. 20, 2011 Rise Set
Actual Time 7:08 AM EDT 6:03 PM EDT
Civil Twilight 6:40 AM EDT 6:31 PM EDT
Nautical Twilight 6:08 AM EDT 7:03 PM EDT
Astronomical Twilight 5:36 AM EDT 7:35 PM EDT
Moon No Moon Rise 2:14 PM EDT (10/20)
Length of Visible Light 11h 51m
Length of Day
10h 55m
Last Quarter, 44% of the Moon is Illuminated
Oct 20
Last Quarter
Oct 26
New
Nov 2
First Quarter
Nov 10
Full
Nov 18
Last Quarter

Hourly Weather History & Observations

Time (EDT) Temp. Dew Point Humidity Pressure Visibility Wind Dir Wind Speed Gust Speed Precip Events Conditions
12:21 AM 60.8 °F 57.2 °F 88% 29.47 in 5.0 mi NNE 10.4 mph - 0.03 in Rain Light Rain
12:51 AM 60.8 °F 57.2 °F 88% 29.47 in 4.0 mi NNE 4.6 mph - 0.05 in Rain Light Rain
12:53 AM 60.1 °F 57.9 °F 93% 29.47 in 4.0 mi North 5.8 mph - 0.06 in Rain Light Rain
12:58 AM 60.8 °F 57.2 °F 88% 29.47 in 2.5 mi NNE 6.9 mph - 0.01 in Rain Rain
1:14 AM 60.8 °F 57.2 °F 88% 29.47 in 4.0 mi NNE 9.2 mph - 0.03 in Rain Light Rain
1:53 AM 60.1 °F 57.9 °F 93% 29.45 in 8.0 mi NNE 9.2 mph - 0.04 in   Overcast
2:53 AM 60.1 °F 59.0 °F 96% 29.45 in 5.0 mi NNE 5.8 mph - 0.02 in Rain Light Rain
3:22 AM 60.8 °F 59.0 °F 94% 29.44 in 3.0 mi North 3.5 mph - 0.01 in Rain Light Rain
3:53 AM 60.1 °F 59.0 °F 96% 29.44 in 10.0 mi NE 5.8 mph - 0.01 in   Overcast
4:35 AM 60.8 °F 59.0 °F 94% 29.44 in 7.0 mi NE 5.8 mph - 0.00 in   Overcast
4:53 AM 60.1 °F 59.0 °F 96% 29.44 in 10.0 mi NNE 8.1 mph - 0.00 in   Overcast
5:06 AM 60.8 °F 59.0 °F 94% 29.43 in 10.0 mi NNE 9.2 mph - N/A   Overcast
5:27 AM 60.8 °F 59.0 °F 94% 29.42 in 10.0 mi North 5.8 mph - N/A   Overcast
5:53 AM 60.1 °F 59.0 °F 96% 29.42 in 9.0 mi NNE 6.9 mph - N/A   Overcast
6:53 AM 64.4 °F 62.6 °F 94% 29.40 in 5.0 mi Variable 5.8 mph - N/A   Mostly Cloudy
7:15 AM 66.2 °F 64.4 °F 94% 29.39 in 5.0 mi SSE 10.4 mph - N/A   Mostly Cloudy
7:53 AM 66.9 °F 64.9 °F 93% 29.41 in 6.0 mi SSE 13.8 mph - N/A   Mostly Cloudy
8:53 AM 68.0 °F 63.0 °F 84% 29.43 in 9.0 mi South 16.1 mph 27.6 mph N/A   Mostly Cloudy
9:53 AM 68.0 °F 59.0 °F 73% 29.44 in 10.0 mi South 16.1 mph 27.6 mph N/A   Mostly Cloudy
10:53 AM 66.9 °F 55.9 °F 68% 29.47 in 10.0 mi SSW 18.4 mph 31.1 mph N/A   Scattered Clouds
11:53 AM 66.9 °F 54.0 °F 63% 29.48 in 10.0 mi SSW 17.3 mph 27.6 mph N/A   Scattered Clouds
12:53 PM 66.0 °F 52.0 °F 60% 29.48 in 10.0 mi SSW 17.3 mph 27.6 mph N/A   Mostly Cloudy
1:53 PM 66.0 °F 51.1 °F 59% 29.49 in 10.0 mi SSW 17.3 mph 25.3 mph N/A   Partly Cloudy
2:53 PM 66.0 °F 51.1 °F 59% 29.50 in 10.0 mi South 17.3 mph 25.3 mph N/A   Mostly Cloudy
3:53 PM 64.0 °F 48.9 °F 58% 29.51 in 10.0 mi SSW 15.0 mph 27.6 mph N/A   Scattered Clouds
4:53 PM 63.0 °F 48.9 °F 60% 29.55 in 10.0 mi SSW 13.8 mph 29.9 mph N/A   Scattered Clouds
5:53 PM 62.1 °F 48.0 °F 60% 29.57 in 10.0 mi SSW 15.0 mph 28.8 mph N/A   Overcast
6:53 PM 62.1 °F 46.9 °F 58% 29.60 in 10.0 mi SSW 15.0 mph 31.1 mph N/A   Overcast
7:53 PM 62.6 °F 44.6 °F 52% 29.63 in 10.0 mi SW 13.8 mph 25.3 mph N/A   Overcast
8:53 PM 61.0 °F 42.1 °F 50% 29.66 in 10.0 mi SW 13.8 mph 26.5 mph N/A   Mostly Cloudy
9:53 PM 60.1 °F 43.0 °F 53% 29.68 in 10.0 mi SW 11.5 mph 25.3 mph N/A   Overcast
10:53 PM 59.0 °F 43.0 °F 55% 29.70 in 10.0 mi SW 12.7 mph 26.5 mph N/A   Clear
11:53 PM 59.0 °F 43.0 °F 55% 29.70 in 10.0 mi SW 11.5 mph 21.9 mph N/A   Clear